{"data":{"norad_id":66227,"intl_designator":"2025-244X","name":"STARLINK-34882","alt_names":[],"object_type":"PAYLOAD","status":"ACTIVE","operator":null,"country":"US","launch_date":"2025-10-28","launch_site_code":"AFWTR","launch_vehicle":null,"mission":null,"orbit_class":"UNKNOWN","rcs_meters":null,"size_class":null,"mass_kg":null,"dimensions":null,"purposes":["comms"],"wikipedia_slug":null,"has_3d_model":false,"image_url":null,"decayed_at":null,"tle_current":{"epoch":"2026-05-24T14:32:28.405248Z","epoch_age_seconds":113119,"freshness":"FRESH","line1":"1 66227U 25244X   26144.60588432  .00009534  00000+0  33370-3 0  9992","line2":"2 66227  53.1571 237.2123 0001284  86.4028 273.7120 15.30189068 33289","mean_motion":15.30189068,"eccentricity":0.0001284,"inclination_deg":53.1571,"raan_deg":237.2123,"arg_perigee_deg":86.4028,"mean_anomaly_deg":273.712,"bstar":0.0003337,"rev_number":3328,"period_min":94.106018015285,"perigee_km":474.36773599831,"apogee_km":476.12768519199,"semimajor_km":6853.3847105951,"source":"CELESTRAK","updated_at":"2026-05-25T13:38:21.131251Z"}}}